CAPE
2285 2213 1678 1864 2172 1410 1436 1913 2194 2697 2841 2568 1816 1240 1188 1326 891 802 515 370 249 172
2541 2202 1934 1649 1452 1938 2065 2386 2793 2395 2563 2775 2537 2072 1841 1643 352 496 111 347 99 12
2910 2365 2506 2090 2249 1536 1789 1610 2796 2903 2758 2841 3003 2583 2308 2061 1365 482 469 202 88 0
2722 2874 2147 2252 2124 2040 2104 2399 2265 3245 3171 3004 3159 2910 2548 2381 1624 896 542 339 129 52
2591 2643 2619 1985 1974 2221 1877 2043 2903 2689 3177 3290 3339 3055 2699 2511 2317 1655 909 632 272 106
2468 2432 2287 2225 2031 2076 2397 2224 2347 3036 2867 3323 3440 3523 3084 2611 2330 1746 1395 761 588 267
2417 2184 2239 2015 2097 2067 2207 2382 2342 2652 3128 3328 3693 3432 3278 2528 2045 1650 1298 818 627 232
2233 2423 2236 2118 1977 2187 2425 2405 2732 2544 3103 3404 3743 3498 3310 2735 1992 1382 1077 723 600 78
2382 2640 2616 2362 2630 2600 2290 2852 2777 2941 2707 3293 3752 3367 2925 2316 1602 1077 519 124 147 24
2763 3260 3140 3125 3369 2315 3080 2397 3003 3172 3386 3501 3538 2536 2121 1481 1293 219 44 42 130 61
1554 1876 2394 2846 3167 3461 3216 3235 3321 3113 3685 3493 2698 1809 1440 1163 320 6 0 19 257 13
657 453 82 116 186 1918 3263 3575 3622 3605 2966 2787 2243 863 770 333 2 0 0 0 224 51
264 11 9 0 0 87 1610 2822 3149 2436 2320 1765 1633 436 129 59 0 0 0 1 66 66
33 0 0 10 0 0 582 1159 955 151 454 641 1351 123 0 0 0 74 19 3 3 19
CIN
-33 -23 -29 -20 -7 -8 -2 -11 -43 -26 -5 -6 -22 -40 -27 -24 -61 -81 -126 -138 -153 -138
-43 -43 -40 -32 -17 -17 -6 -20 -37 -39 -19 -1 -10 -24 -25 -29 -120 -123 -185 -149 -188 -104
-51 -58 -34 -27 -20 -25 -16 -10 -10 -19 -26 -8 -2 -15 -13 -12 -43 -124 -122 -148 -174 -0
-69 -59 -62 -46 -33 -32 -20 -17 -18 -14 -14 -19 -2 -9 -15 -9 -45 -86 -88 -103 -151 -160
-73 -66 -68 -82 -67 -50 -61 -40 -24 -35 -18 -14 -4 -11 -22 -10 -1 -29 -91 -116 -124 -142
-71 -72 -78 -81 -80 -77 -69 -68 -55 -41 -47 -20 -4 -1 -4 -8 -3 -28 -55 -94 -93 -98
-76 -85 -83 -73 -83 -79 -87 -83 -83 -55 -49 -29 -1 -1 -1 -7 -20 -46 -44 -39 -24 -26
-69 -76 -86 -72 -83 -76 -70 -91 -79 -72 -37 -31 -0 -1 -1 -5 -54 -96 -167 -120 -56 -127
-50 -40 -55 -69 -51 -48 -62 -53 -79 -73 -73 -29 -1 -1 -3 -37 -73 -166 -163 -202 -177 -356
-3 -2 -5 -8 -12 -60 -33 -71 -32 -42 -11 -1 -1 -16 -40 -72 -85 -269 -415 -300 -177 -288
-181 -115 -50 -2 -6 -5 -13 -8 -9 -20 -2 -2 -55 -145 -171 -157 -337 -156 -0 -406 -134 -254
-346 -370 -543 -533 -473 -16 -3 -1 -3 -1 -2 -34 -111 -287 -230 -345 -88 -0 -0 -0 -175 -227
-458 -463 -283 -0 -0 -454 -14 -18 -2 -38 -77 -117 -98 -365 -412 -444 -0 -0 -0 -2 -245 -191
-278 -0 -0 -185 -0 -0 -85 -57 -38 -156 -224 -341 -82 -448 -0 -0 -0 -295 -296 -16 -2 -89
Wind_Speed
14 14 16 14 21 16 15 11 14 17 17 17 16 16 16 17 16 17 15 14 14 15
11 17 15 19 18 21 12 12 12 14 15 15 15 15 16 16 16 15 14 13 14 12
12 17 21 16 14 17 14 12 10 11 11 13 12 13 13 14 14 13 12 13 14 14
13 15 17 19 16 16 16 12 8 8 9 11 10 11 10 10 12 11 10 14 13 14
11 12 12 15 13 11 17 15 7 8 8 9 9 9 8 7 7 8 8 10 15 13
7 8 10 9 9 9 10 13 12 8 9 9 9 7 5 5 6 6 5 6 11 13
6 7 8 8 7 7 8 10 12 12 11 9 8 6 5 5 4 4 5 7 10 12
13 13 12 11 8 7 7 10 11 12 10 9 8 6 5 3 3 2 4 8 12 11
10 19 21 23 26 16 9 8 9 10 11 9 7 6 5 3 2 3 6 8 10 15
17 20 27 32 30 34 26 10 10 9 7 6 6 4 4 3 1 10 8 7 9 11
17 21 24 31 34 35 33 32 28 17 11 8 10 4 5 1 7 12 11 10 8 6
21 23 25 27 31 41 34 29 23 22 16 13 7 6 2 5 9 12 12 10 6 5
23 26 27 32 35 43 45 33 28 19 13 17 16 4 2 5 8 13 15 10 6 4
24 30 34 37 38 47 50 39 37 40 25 9 6 4 2 2 9 14 14 11 9 6
Wind_Direction
150 145 152 138 184 145 142 81 100 116 111 107 98 102 90 117 115 104 112 86 53 54
145 155 145 162 163 181 240 74 97 107 118 107 97 105 104 106 97 90 92 74 63 58
151 162 171 155 149 162 149 136 88 95 103 124 108 105 114 100 87 77 72 52 42 31
156 160 168 172 164 164 164 146 127 108 116 133 127 114 112 115 71 66 60 38 30 17
151 155 159 168 168 164 178 173 150 150 147 147 144 132 120 100 79 63 58 36 17 6
171 168 168 168 170 172 173 177 177 171 170 165 161 152 126 112 96 61 64 50 18 5
206 194 190 188 189 189 185 182 185 185 183 177 172 165 142 131 84 54 44 37 23 18
272 270 271 271 261 237 223 196 190 190 191 191 186 182 166 127 93 79 47 27 15 13
274 278 277 277 276 280 246 230 211 207 204 204 207 203 188 140 145 12 27 6 13 5
289 284 274 270 275 268 278 249 250 238 251 248 232 265 224 210 283 30 5 1 2 3
308 301 293 279 272 271 273 273 278 277 271 275 303 237 219 251 330 340 356 351 2 27
301 297 298 297 295 272 277 279 278 279 284 285 288 272 305 342 342 350 353 357 13 52
302 298 294 290 295 302 263 279 280 282 288 298 297 229 255 331 350 354 2 9 26 71
309 305 297 288 292 304 285 275 282 277 298 302 264 229 227 326 344 352 2 4 13 23